Temp
25 24 24 23 23 24 23 22 22 22 22 21 21 21 21 21 21 21 22 21 21 21 21 22 22 22 23 22 23 23 22 22 23 23 22 22 22 22 23 23 23 23
25 24 24 24 24 24 23 23 22 22 22 21 22 21 21 21 22 21 21 21 21 21 21 21 21 21 21 21 22 21 21 22 22 25 23 22 22 22 22 23 24 25
25 24 23 23 23 23 23 22 22 22 22 22 21 21 22 21 21 21 20 20 20 20 20 20 20 20 20 20 21 20 21 21 21 22 22 22 22 22 23 23 24 25
24 25 24 24 23 23 23 22 22 21 21 21 21 22 21 22 20 20 20 20 19 20 20 20 19 19 19 19 19 19 20 20 21 21 21 22 22 22 22 23 23 24
25 24 23 23 23 23 23 22 22 22 21 22 21 20 20 19 18 18 18 18 18 18 18 18 19 18 18 18 18 17 19 18 20 20 19 19 21 23 23 23 21 22
24 24 23 23 23 23 22 22 22 22 21 20 20 20 19 18 17 17 17 16 17 17 17 16 17 17 17 17 17 16 17 17 17 18 17 16 17 19 20 21 21 20
24 23 23 23 22 22 22 21 21 20 20 20 18 18 18 18 17 17 16 16 16 15 15 15 15 15 16 16 15 15 15 16 16 16 15 15 16 16 18 18 18 18
24 23 23 22 21 21 20 20 19 18 19 18 18 19 18 18 17 16 15 16 14 14 14 14 15 15 15 15 13 13 14 15 15 13 13 13 14 14 15 16 16 17
23 22 21 20 20 19 19 19 19 18 18 18 18 18 17 17 17 15 15 15 14 14 14 14 14 14 14 13 13 12 11 11 13 12 12 11 11 12 13 14 13 15
22 21 20 20 20 19 19 19 18 18 17 17 17 16 16 16 15 15 15 14 13 13 12 13 13 13 13 12 13 11 10 11 9 10 8 7 9 9 11 12 10 9
21 20 20 20 19 19 19 18 17 17 16 16 16 15 15 14 14 14 13 13 12 12 12 12 12 12 12 12 11 10 9 7 5 5 6 7 8 8 12 9 10 8
20 20 20 20 19 18 17 17 16 16 16 15 15 16 13 14 13 11 12 10 11 11 11 10 10 10 9 9 9 8 8 7 4 4 7 7 8 8 6 5 6 6
20 20 19 19 18 17 17 16 16 16 16 15 15 14 12 10 9 9 10 9 10 9 9 9 10 8 7 7 6 6 4 3 4 5 7 7 8 8 8 7 7 7
19 19 18 18 17 16 17 16 15 15 14 14 12 10 9 9 8 9 8 8 9 8 10 8 7 7 6 5 3 3 2 2 4 6 7 7 7 7 8 7 7 7
17 17 17 16 15 15 14 14 14 13 12 11 10 9 8 8 8 8 7 7 7 7 7 6 4 4 3 3 2 3 4 5 7 7 7 7 8 8 9 10 10 9
16 15 15 14 13 13 13 13 13 12 10 9 8 7 7 7 6 6 4 3 4 3 3 2 2 2 8 11 13 11 10 11 11 11 11 10 10 10 10 11 11 10
14 14 13 13 13 13 12 11 11 10 9 7 5 4 2 4 4 4 3 3 2 1 0 -0 1 2 10 16 17 18 15 13 13 12 12 11 10 8 7 8 8 8
14 13 12 12 11 12 11 10 9 8 6 4 3 3 3 2 2 2 1 1 1 -1 -2 -1 -1 7 14 16 17 18 17 14 13 12 12 11 10 10 10 10 11 11
13 12 12 11 11 11 10 8 7 7 4 2 1 1 1 1 2 3 -0 -1 -1 -2 -2 -1 -1 7 14 15 16 17 18 16 13 12 11 11 11 10 9 9 9 8
13 13 12 12 11 9 8 7 6 6 3 1 1 2 1 1 -1 -0 -0 -3 -3 -3 -1 -2 -1 4 12 15 16 17 17 17 13 12 11 11 9 6 2 3 3 3
14 13 12 10 9 8 7 6 5 3 3 1 0 2 1 -1 -1 -2 -3 -2 -4 -4 -4 -2 -2 7 13 15 16 16 17 16 12 11 9 6 3 1 2 3 3 3
13 12 11 8 8 7 6 7 5 3 2 1 -0 -1 -2 -3 -3 -3 -4 -5 -3 -5 -6 -3 -2 9 13 14 15 15 16 13 11 9 5 4 3 3 4 4 4 4
13 11 9 8 7 7 5 5 5 2 1 -1 -1 1 1 -1 -3 -3 -3 -4 -5 -4 -4 -2 -2 4 11 13 13 15 14 10 10 9 9 7 4 3 4 4 4 4
12 10 8 7 6 6 5 6 4 3 3 3 2 -1 -0 -2 -4 -4 -4 -4 -5 -4 -3 -4 -2 2 7 11 12 14 13 10 9 8 6 4 5 6 5 3 3 8
10 9 8 7 6 6 4 4 4 3 0 -0 -0 -3 -2 -4 -4 -5 -5 -5 -5 -5 1 1 -1 1 6 9 12 13 12 9 9 7 5 5 5 4 2 1 0 4
9 8 6 6 5 3 1 2 1 -2 -1 -2 -3 -3 -4 -5 -4 -5 -6 -4 -4 -5 -3 -2 -3 -2 -0 8 11 12 13 11 10 8 5 3 -1 -4 -1 -1 -1 -1
MSLP
1027.52 1027.71 1027.88 1028.04 1028.16 1028.28 1028.40 1028.52 1028.59 1028.68 1028.71 1028.83 1028.95 1028.99 1029.11 1029.16 1029.23 1029.16 1029.19 1029.19 1029.19 1029.19 1029.16 1029.16 1029.07 1029.04 1028.99 1028.92 1028.83 1028.71 1028.64 1028.47 1028.35 1028.16 1027.99 1027.88 1027.80 1027.64 1027.52 1027.35 1027.16 1027.04
1027.28 1027.47 1027.64 1027.80 1027.95 1028.11 1028.19 1028.28 1028.35 1028.44 1028.52 1028.64 1028.76 1028.83 1028.92 1028.99 1028.99 1028.99 1028.95 1028.99 1029.04 1029.07 1029.07 1029.11 1029.07 1029.04 1028.99 1028.95 1028.88 1028.83 1028.68 1028.56 1028.44 1028.19 1028.04 1027.88 1027.71 1027.47 1027.35 1027.16 1026.92 1026.71
1027.07 1027.28 1027.40 1027.56 1027.68 1027.83 1027.95 1028.07 1028.19 1028.23 1028.31 1028.40 1028.52 1028.59 1028.64 1028.71 1028.76 1028.76 1028.80 1028.83 1028.92 1028.95 1028.99 1029.04 1029.04 1029.04 1029.04 1028.99 1028.92 1028.88 1028.76 1028.64 1028.52 1028.28 1028.11 1027.88 1027.64 1027.47 1027.23 1026.99 1026.71 1026.52
1026.80 1026.92 1027.04 1027.19 1027.40 1027.59 1027.76 1027.88 1027.95 1028.04 1028.16 1028.23 1028.28 1028.31 1028.40 1028.47 1028.52 1028.56 1028.64 1028.68 1028.76 1028.83 1028.92 1028.95 1028.99 1028.99 1028.95 1028.95 1028.92 1028.92 1028.80 1028.71 1028.59 1028.44 1028.28 1027.95 1027.64 1027.35 1027.19 1026.95 1026.64 1026.35
1026.47 1026.64 1026.80 1026.92 1027.16 1027.31 1027.52 1027.64 1027.71 1027.80 1027.92 1027.92 1027.95 1028.16 1028.23 1028.28 1028.31 1028.35 1028.44 1028.52 1028.59 1028.68 1028.76 1028.83 1028.88 1028.92 1028.92 1028.92 1028.88 1028.92 1028.83 1028.80 1028.64 1028.52 1028.44 1028.28 1027.95 1027.64 1027.28 1027.04 1026.80 1026.40
1026.23 1026.31 1026.44 1026.64 1026.83 1027.07 1027.28 1027.40 1027.47 1027.59 1027.68 1027.80 1027.83 1027.95 1027.99 1028.04 1028.11 1028.16 1028.23 1028.31 1028.40 1028.52 1028.59 1028.68 1028.76 1028.80 1028.80 1028.83 1028.83 1028.88 1028.83 1028.80 1028.68 1028.59 1028.52 1028.44 1028.28 1028.07 1027.80 1027.44 1027.19 1026.95
1025.88 1026.07 1026.19 1026.44 1026.64 1026.83 1026.95 1027.11 1027.28 1027.40 1027.47 1027.47 1027.64 1027.71 1027.76 1027.83 1027.92 1027.95 1028.04 1028.11 1028.23 1028.31 1028.44 1028.56 1028.59 1028.68 1028.68 1028.71 1028.71 1028.76 1028.71 1028.68 1028.64 1028.59 1028.56 1028.44 1028.28 1028.16 1027.95 1027.83 1027.59 1027.44
1025.59 1025.80 1025.95 1026.23 1026.40 1026.56 1026.76 1026.88 1026.99 1027.11 1027.16 1027.31 1027.44 1027.44 1027.56 1027.59 1027.68 1027.76 1027.88 1027.99 1028.07 1028.16 1028.28 1028.35 1028.40 1028.47 1028.47 1028.52 1028.52 1028.52 1028.56 1028.56 1028.56 1028.56 1028.52 1028.40 1028.28 1028.19 1028.04 1027.88 1027.76 1027.56
1025.31 1025.47 1025.71 1025.88 1026.07 1026.31 1026.47 1026.59 1026.71 1026.83 1026.95 1027.04 1027.16 1027.23 1027.35 1027.44 1027.47 1027.59 1027.76 1027.83 1027.92 1027.99 1028.07 1028.16 1028.19 1028.28 1028.31 1028.31 1028.35 1028.35 1028.44 1028.52 1028.52 1028.52 1028.52 1028.44 1028.31 1028.23 1028.04 1027.88 1027.76 1027.64
1025.07 1025.23 1025.47 1025.68 1025.83 1026.04 1026.16 1026.28 1026.44 1026.59 1026.80 1026.92 1026.95 1027.07 1027.19 1027.28 1027.40 1027.52 1027.68 1027.76 1027.80 1027.88 1027.92 1027.99 1028.07 1028.11 1028.19 1028.19 1028.23 1028.28 1028.40 1028.52 1028.56 1028.56 1028.56 1028.44 1028.35 1028.19 1028.04 1027.92 1027.88 1027.83
1024.80 1025.04 1025.19 1025.40 1025.56 1025.76 1025.88 1026.07 1026.28 1026.44 1026.56 1026.59 1026.76 1026.88 1026.99 1027.16 1027.35 1027.44 1027.56 1027.64 1027.71 1027.76 1027.83 1027.88 1027.95 1028.04 1028.07 1028.11 1028.16 1028.28 1028.35 1028.40 1028.47 1028.47 1028.44 1028.40 1028.28 1028.16 1027.95 1027.88 1027.88 1027.88
1024.52 1024.80 1024.95 1025.04 1025.28 1025.56 1025.71 1025.92 1025.99 1026.16 1026.28 1026.44 1026.59 1026.71 1026.88 1027.07 1027.19 1027.40 1027.47 1027.59 1027.68 1027.71 1027.80 1027.83 1027.88 1027.92 1027.95 1028.04 1028.11 1028.19 1028.23 1028.28 1028.31 1028.31 1028.28 1028.19 1028.07 1027.92 1027.80 1027.71 1027.71 1027.68
1024.35 1024.47 1024.64 1024.88 1025.16 1025.31 1025.47 1025.68 1025.83 1025.95 1026.11 1026.23 1026.44 1026.56 1026.76 1027.04 1027.23 1027.31 1027.44 1027.52 1027.56 1027.64 1027.68 1027.68 1027.71 1027.76 1027.83 1027.88 1027.99 1028.04 1028.11 1028.16 1028.16 1028.11 1027.99 1027.88 1027.76 1027.64 1027.47 1027.35 1027.31 1027.23
1023.99 1024.19 1024.47 1024.71 1024.88 1025.07 1025.28 1025.44 1025.64 1025.80 1025.95 1026.07 1026.31 1026.56 1026.76 1026.95 1027.16 1027.28 1027.35 1027.44 1027.47 1027.52 1027.52 1027.56 1027.59 1027.64 1027.71 1027.80 1027.83 1027.83 1027.92 1027.95 1027.92 1027.76 1027.59 1027.47 1027.35 1027.23 1027.11 1026.99 1026.88 1026.76
1023.79 1024.11 1024.28 1024.47 1024.68 1024.88 1025.07 1025.28 1025.47 1025.64 1025.83 1026.11 1026.35 1026.56 1026.80 1026.95 1027.11 1027.23 1027.31 1027.40 1027.44 1027.44 1027.44 1027.44 1027.52 1027.56 1027.64 1027.64 1027.59 1027.59 1027.59 1027.52 1027.40 1027.23 1027.11 1026.99 1026.83 1026.71 1026.59 1026.56 1026.47 1026.40
1023.64 1023.88 1024.11 1024.31 1024.59 1024.80 1024.95 1025.16 1025.31 1025.52 1025.83 1026.07 1026.31 1026.52 1026.71 1026.88 1026.99 1027.07 1027.16 1027.19 1027.23 1027.28 1027.35 1027.44 1027.47 1027.47 1027.44 1027.28 1027.07 1026.95 1026.83 1026.71 1026.59 1026.52 1026.44 1026.35 1026.28 1026.19 1026.16 1026.07 1026.04 1025.95
1023.55 1023.76 1024.04 1024.23 1024.40 1024.64 1024.83 1024.99 1025.23 1025.52 1025.71 1025.99 1026.23 1026.44 1026.56 1026.71 1026.80 1026.88 1026.95 1027.04 1027.11 1027.16 1027.23 1027.28 1027.35 1027.35 1027.19 1026.76 1026.40 1026.16 1026.04 1025.95 1025.95 1025.92 1025.88 1025.88 1025.83 1025.83 1025.80 1025.71 1025.56 1025.47
1023.40 1023.67 1023.91 1024.04 1024.28 1024.44 1024.64 1024.88 1025.16 1025.44 1025.64 1025.88 1026.11 1026.28 1026.44 1026.59 1026.71 1026.76 1026.83 1026.88 1026.92 1026.99 1027.04 1027.11 1027.16 1027.11 1026.71 1026.31 1026.04 1025.80 1025.64 1025.59 1025.56 1025.56 1025.52 1025.47 1025.44 1025.35 1025.23 1025.16 1025.07 1025.04
1023.32 1023.52 1023.72 1023.91 1024.11 1024.28 1024.56 1024.88 1025.11 1025.40 1025.64 1025.88 1025.99 1026.16 1026.40 1026.52 1026.56 1026.64 1026.59 1026.68 1026.76 1026.76 1026.80 1026.88 1026.92 1026.83 1026.44 1026.11 1025.88 1025.59 1025.40 1025.28 1025.19 1025.16 1025.16 1025.04 1024.99 1024.99 1025.04 1024.99 1024.99 1025.04
1023.16 1023.40 1023.55 1023.76 1023.99 1024.28 1024.56 1024.83 1025.07 1025.19 1025.44 1025.71 1025.92 1026.11 1026.19 1026.28 1026.35 1026.40 1026.47 1026.52 1026.56 1026.64 1026.68 1026.76 1026.68 1026.68 1026.31 1025.99 1025.68 1025.35 1025.07 1024.92 1024.88 1024.83 1024.83 1024.88 1024.92 1024.92 1024.95 1024.99 1025.04 1024.99
1023.03 1023.23 1023.43 1023.64 1023.96 1024.23 1024.52 1024.71 1024.92 1025.16 1025.40 1025.59 1025.76 1025.80 1025.88 1025.95 1026.04 1026.16 1026.23 1026.35 1026.47 1026.52 1026.56 1026.59 1026.59 1026.40 1025.99 1025.68 1025.35 1025.07 1024.80 1024.64 1024.59 1024.68 1024.76 1024.76 1024.80 1024.83 1024.83 1024.80 1024.71 1024.68
1022.88 1023.11 1023.28 1023.59 1023.91 1024.19 1024.40 1024.56 1024.80 1024.99 1025.16 1025.40 1025.56 1025.68 1025.80 1025.95 1026.07 1026.19 1026.23 1026.28 1026.35 1026.44 1026.47 1026.40 1026.44 1026.16 1025.71 1025.44 1025.16 1024.88 1024.59 1024.52 1024.52 1024.56 1024.59 1024.59 1024.59 1024.59 1024.52 1024.44 1024.40 1024.31
1022.67 1022.84 1023.11 1023.43 1023.79 1024.04 1024.23 1024.40 1024.64 1024.88 1025.07 1025.31 1025.40 1025.47 1025.59 1025.71 1025.83 1025.95 1026.04 1026.19 1026.23 1026.31 1026.35 1026.31 1026.28 1026.07 1025.76 1025.40 1025.07 1024.71 1024.47 1024.44 1024.35 1024.31 1024.23 1024.23 1024.23 1024.23 1024.16 1024.07 1023.96 1023.91
1022.52 1022.76 1022.99 1023.35 1023.67 1023.79 1023.99 1024.23 1024.47 1024.68 1024.83 1025.07 1025.19 1025.31 1025.44 1025.52 1025.68 1025.83 1025.99 1026.11 1026.16 1026.16 1026.19 1026.23 1026.11 1025.95 1025.76 1025.35 1024.92 1024.56 1024.31 1024.19 1024.11 1024.07 1024.04 1024.11 1023.96 1023.76 1023.64 1023.59 1023.55 1023.47
1022.40 1022.64 1022.84 1023.11 1023.40 1023.64 1023.88 1024.04 1024.28 1024.47 1024.71 1024.92 1024.99 1025.11 1025.23 1025.44 1025.59 1025.76 1025.92 1025.99 1026.04 1026.07 1026.04 1025.95 1025.88 1025.71 1025.56 1025.23 1024.71 1024.35 1024.11 1023.99 1023.91 1023.84 1023.76 1023.64 1023.55 1023.52 1023.43 1023.47 1023.40 1023.35
1022.28 1022.43 1022.72 1022.96 1023.20 1023.47 1023.79 1023.91 1024.16 1024.47 1024.59 1024.71 1024.88 1025.04 1025.11 1025.31 1025.52 1025.68 1025.76 1025.80 1025.83 1025.92 1025.92 1025.83 1025.83 1025.64 1025.52 1025.04 1024.47 1023.99 1023.64 1023.47 1023.40 1023.35 1023.28 1023.32 1023.40 1023.40 1023.16 1023.03 1023.16 1023.16
Wind_Speed
5 4 5 4 5 5 4 4 3 3 3 3 4 2 3 2 1 1 1 1 2 3 3 3 3 4 5 4 5 5 5 6 5 5 5 5 5 6 7 7 8 7
6 5 4 4 4 4 4 4 4 4 3 3 4 3 3 3 1 2 1 1 1 1 2 3 3 3 4 4 5 5 5 5 6 5 6 6 6 6 7 7 8 8
5 5 5 5 6 5 5 5 4 4 4 4 4 4 3 3 1 1 1 1 1 1 1 2 2 3 3 3 4 4 5 6 6 7 6 7 6 7 7 7 7 8
6 7 6 5 5 5 5 4 3 3 3 4 4 4 3 3 2 1 1 2 2 0 0 1 1 2 3 3 4 4 5 5 6 7 7 7 7 6 7 7 8 7
7 6 5 5 4 5 5 5 5 4 4 5 3 3 4 3 3 2 2 2 2 1 1 1 1 2 2 3 3 4 5 6 6 6 6 7 8 9 8 8 8 8
6 6 5 5 5 6 5 5 5 4 4 3 5 4 4 4 3 3 3 3 2 2 1 1 1 1 1 2 3 3 4 5 5 5 6 6 6 6 7 8 9 8
7 6 6 5 5 5 6 5 4 4 4 5 4 4 4 4 4 4 4 3 3 3 2 1 1 0 0 1 1 3 3 3 4 4 5 5 5 6 6 7 8 7
7 6 6 5 5 5 6 5 5 4 5 4 5 5 5 5 5 4 3 4 3 3 2 2 0 0 1 1 2 3 3 2 4 3 4 5 5 6 5 5 5 7
7 6 5 5 6 5 5 5 5 5 4 5 5 5 4 4 4 4 4 4 3 3 2 1 1 1 2 2 2 3 3 3 3 3 4 5 5 6 6 5 4 4
7 6 6 6 6 6 6 6 5 4 3 4 4 3 4 3 3 3 4 3 3 2 2 1 1 1 2 2 2 1 1 2 3 3 4 4 4 5 5 4 3 3
7 6 7 7 7 6 6 4 4 4 3 4 4 4 4 3 3 3 3 3 2 2 1 1 1 2 2 2 1 0 1 3 3 3 4 4 5 5 6 4 4 4
7 7 7 7 7 6 5 5 5 4 4 4 5 4 3 3 4 3 3 2 2 1 1 2 2 2 1 1 1 2 3 3 4 4 4 5 5 6 5 4 5 5
7 8 7 6 6 6 5 4 4 4 4 4 4 4 4 4 3 3 2 2 2 2 2 3 2 2 2 3 3 3 4 4 4 4 5 6 6 7 6 6 6 6
7 6 6 6 6 5 5 5 5 4 5 4 4 4 5 4 4 3 2 2 2 2 3 3 3 3 3 3 3 3 4 4 5 7 7 7 7 8 8 8 8 8
5 5 5 5 5 5 4 5 5 5 4 4 4 4 4 4 3 2 1 1 2 3 3 2 2 3 3 3 4 5 5 6 8 8 9 8 8 9 8 9 8 7
6 5 5 4 4 5 5 5 5 4 5 5 5 5 4 3 3 2 1 1 2 2 2 2 3 3 4 8 11 9 8 9 9 8 8 8 7 6 5 6 6 7
5 5 5 5 5 5 4 5 4 4 5 5 4 4 3 2 2 1 1 1 2 3 3 3 3 4 8 16 17 19 13 8 7 7 7 7 7 8 9 9 9 9
6 5 5 5 5 5 5 4 5 5 5 4 4 3 2 2 1 2 3 3 2 2 2 3 4 6 15 17 18 18 16 10 7 7 7 6 7 9 9 7 7 6
5 5 5 5 5 5 4 4 5 5 4 4 4 3 2 2 3 2 3 2 2 3 4 4 4 8 15 17 17 18 18 15 8 7 7 7 6 5 5 6 5 4
5 5 5 5 5 4 5 5 5 5 4 4 3 3 3 2 2 2 2 2 3 4 4 4 5 6 14 17 18 19 19 17 9 7 5 4 4 4 4 4 5 5
5 5 5 4 4 5 5 5 5 4 4 4 4 3 3 3 3 3 2 3 4 4 4 5 5 9 16 18 19 20 20 17 7 4 3 3 4 4 5 7 7 8
6 6 5 4 5 5 6 6 5 5 4 3 3 3 2 1 1 1 3 4 4 4 4 5 5 13 18 18 19 19 19 10 5 4 4 5 6 6 7 7 7 8
5 5 5 5 5 6 6 5 5 4 3 3 3 3 3 3 3 3 3 3 4 4 5 6 6 10 16 19 19 19 15 7 7 7 7 7 6 6 7 7 8 7
5 6 6 6 6 7 6 5 4 3 4 4 5 4 4 4 4 3 3 3 4 5 5 5 7 8 14 17 19 18 15 9 6 6 5 5 7 7 7 6 7 11
5 6 6 6 6 6 6 5 4 5 3 3 4 4 4 3 2 3 3 4 4 4 7 8 7 8 13 18 20 19 15 9 8 8 9 8 6 5 5 5 5 6
5 6 5 6 7 5 4 5 3 3 3 4 4 3 3 3 3 3 4 5 4 4 5 6 7 8 8 18 18 18 18 10 6 6 5 5 6 6 6 4 3 2
Wind_Direction
180 176 188 185 195 191 191 186 194 183 211 188 177 211 174 208 185 113 49 27 11 15 4 7 4 5 356 353 347 342 330 314 305 295 285 283 285 288 290 289 281 268
190 188 190 186 196 192 196 181 193 184 205 192 193 184 201 171 194 147 121 76 45 29 16 13 7 359 358 356 348 347 335 331 320 310 302 296 289 289 285 284 286 283
189 190 189 188 195 202 199 196 185 194 185 202 190 186 191 173 184 168 155 129 105 56 24 13 8 359 358 353 351 349 342 338 332 323 314 298 297 296 291 292 288 282
197 195 195 198 195 200 198 186 205 198 197 188 203 198 176 195 170 179 156 145 134 144 116 36 20 3 4 354 356 351 342 338 332 333 331 325 310 297 301 299 291 286
195 200 194 191 192 191 188 188 208 212 199 210 202 178 186 185 182 172 166 169 156 155 131 70 40 22 7 3 359 350 342 335 332 338 336 335 333 332 328 326 313 295
199 192 185 182 187 186 195 201 212 212 215 199 204 191 194 189 185 187 183 170 171 159 142 123 93 22 22 2 355 341 328 323 322 331 331 329 328 334 329 330 336 333
192 187 189 184 188 191 195 207 210 204 203 206 187 202 193 194 193 193 187 172 162 160 149 154 136 171 338 332 322 309 305 302 309 318 318 317 321 325 330 331 331 333
193 187 184 182 184 190 194 200 203 198 206 198 191 217 192 201 195 195 177 165 159 162 166 166 184 189 261 289 293 304 297 293 304 314 315 315 320 315 317 313 311 308
186 186 182 186 186 192 195 198 204 208 204 199 208 214 205 193 194 183 171 162 164 173 171 195 206 249 258 266 286 279 284 297 306 314 312 314 315 310 311 306 306 310
187 188 183 188 191 198 201 206 207 210 203 205 213 194 189 208 176 167 163 167 177 187 190 204 246 263 271 265 263 271 298 305 308 307 305 300 299 303 304 306 307 308
192 188 191 195 200 201 207 202 196 197 193 191 174 180 192 170 176 163 159 167 175 194 204 216 249 260 278 275 258 264 286 287 289 290 292 289 285 286 288 284 284 280
194 193 196 201 202 199 191 185 182 177 176 181 169 183 179 173 163 163 156 171 175 199 204 228 234 251 251 244 257 271 277 279 277 280 280 283 283 273 268 264 263 265
194 198 197 198 191 183 177 173 177 180 172 182 182 172 160 152 153 144 181 158 211 199 227 232 236 232 249 255 262 266 265 270 276 274 276 280 274 268 264 261 260 259
198 196 189 184 177 173 178 183 181 180 184 182 152 150 153 155 160 163 212 179 217 223 240 234 241 251 252 253 249 252 263 263 262 270 273 269 266 263 260 259 259 260
189 183 176 172 176 178 181 186 184 186 174 148 146 145 142 156 167 165 191 245 251 242 256 262 253 250 236 242 263 270 253 259 259 258 257 259 259 258 258 258 259 261
178 173 172 172 170 180 187 185 186 175 153 149 149 151 154 161 167 179 179 223 262 272 264 249 252 255 255 269 281 273 256 252 250 247 249 253 257 261 265 271 273 272
165 173 162 171 182 182 181 180 172 156 149 146 149 153 160 172 152 177 225 223 232 241 252 261 263 267 272 290 289 287 285 278 275 274 267 262 263 271 273 267 259 252
169 163 167 183 174 185 184 174 153 151 154 156 152 158 191 161 173 221 231 239 237 245 252 257 267 265 289 292 290 287 285 283 280 273 267 259 256 255 255 260 268 266
167 167 179 181 188 189 175 155 158 158 157 156 176 195 170 186 223 222 244 241 228 253 269 269 269 275 294 292 290 288 287 287 281 273 267 260 256 262 272 278 281 284
172 176 184 193 188 173 164 164 165 178 176 174 170 177 190 219 234 232 240 248 249 257 260 266 272 273 288 289 287 286 286 288 284 276 274 277 277 268 265 264 267 266
180 186 193 194 181 169 169 174 174 171 169 185 178 195 212 228 235 249 254 255 261 261 263 271 270 275 288 288 288 288 288 287 286 292 278 276 278 276 266 264 261 259
183 190 193 181 175 173 174 181 178 178 189 190 184 198 200 170 237 196 243 257 261 260 274 274 272 283 290 291 291 290 288 286 282 276 281 280 274 265 262 260 257 254
185 185 188 185 180 179 187 189 186 197 206 181 186 203 207 214 221 228 239 245 261 269 271 275 275 284 291 291 290 288 287 289 286 280 269 260 253 261 259 259 255 250
187 182 185 187 179 189 194 197 193 200 197 189 190 208 218 217 224 235 248 241 248 263 260 267 276 272 284 288 288 287 283 277 272 278 285 274 269 259 252 253 256 256
178 177 179 180 185 196 189 194 198 199 198 177 197 191 213 211 221 227 250 258 249 253 265 270 276 278 283 286 285 285 282 279 275 261 254 251 255 270 273 260 269 266
171 173 176 178 191 194 189 200 191 169 186 193 205 191 212 219 229 231 245 257 259 257 261 262 269 273 271 280 285 284 282 277 272 270 262 260 259 246 256 269 235 248